{"data":{"norad_id":64157,"intl_designator":"2025-112M","name":"STARLINK-34343","alt_names":[],"object_type":"PAYLOAD","status":"ACTIVE","operator":null,"country":"US","launch_date":"2025-05-27","launch_site_code":"AFWTR","launch_vehicle":null,"mission":null,"orbit_class":"UNKNOWN","rcs_meters":null,"size_class":null,"mass_kg":null,"dimensions":null,"purposes":[],"wikipedia_slug":null,"has_3d_model":false,"image_url":null,"decayed_at":null,"tle_current":{"epoch":"2026-09-21T01:54:07.937856Z","epoch_age_seconds":141980,"freshness":"FRESH","line1":"1 64157U 25112M   26264.07925854  .00006836  00000+0  44853-3 0  9993","line2":"2 64157  97.6044 314.0549 0013337 311.0448  48.9627 15.07911337 72696","mean_motion":15.07911337,"eccentricity":0.0013337,"inclination_deg":97.6044,"raan_deg":314.0549,"arg_perigee_deg":311.0448,"mean_anomaly_deg":48.9627,"bstar":0.00044853,"rev_number":7269,"period_min":95.496330896012,"perigee_km":533.35323213768,"apogee_km":551.81356172446,"semimajor_km":6920.7203969311,"source":"CELESTRAK","updated_at":"2026-09-22T09:00:29.581567Z"}}}